Kezdőlap
METAR-TAF:

METAR-TAF

Repülőterek :

Storm Lake Municipal Airport

Storm Lake, Iowa, Amerikai Egyesült Államok

földrajzi szélesség: 42-36N, földrajzi hosszúság: 095-14W, magasság: 454 m

Jelenlegi meteorológiai megfigyelések

A jelentés 23 perccel ezelõtt készült, 12:35 UTC
Keleti szél 9 kt
Hőmérséklet -9°C
Páratartalom 92%
Légköri nyomás 1025 hPa
Látótávolság: 11.3 km
Derült ég

METAR: KSLB 081235Z AUTO 09009KT 7SM CLR M09/M10 A3027 RMK AO2

Idő: 06:58 (12:58 UTC)


TAF: hiányzik

Meteorológiai megfigyelések és előrejelzések több, mint 4000 repülőtéren (METAR és TAF jelentéseket).

A térképen piros és sárga pontok jelzik az elérhető meteorológiai állomásokat.

Mozgassa az egeret a pont fölött, hogy megjelenjen az állomás neve.

Azután kattintson az időjárási megfigyelések és előrejelzések megtekintéséhez.

A térkép megváltoztatása: kattintson a fekete keresztel jelölt zöld gombra ráközelítéshez, a vonallal jelölt zöld gombra távolításhoz, vagy a zöld nyilakra a szomszédos térképek eléréséhez.


METAR-TAF: